Portland Troutdale, OR

6:11 PM PDT on June 20, 2018 (GMT -0700)
Portland-Troutdale

Weather History for KTTD - March, 2014

Change the Weather History Date:

Saturday, March 8, 2014

  Actual Average Record
Temperature  
Mean Temperature 52 °F 46 °F  
Max Temperature 58 °F 55 °F 72 °F (2005)
Min Temperature 45 °F 38 °F 29 °F (1982)
Degree Days  
Heating Degree Days 13 19  
Month to date heating degree days 116 157  
Cooling Degree Days 0 0  
Month to date cooling degree days 0 0  
Growing Degree Days 1 (Base 50)    
Moisture  
Dew Point 45 °F    
Average Humidity 78    
Maximum Humidity 93    
Minimum Humidity 63    
Precipitation  
Precipitation 0.34 in 0.14 in 1.09 in (1951)
Month to date precipitation 2.01 1.21  
Year to date precipitation 8.07 12.48  
Sea Level Pressure  
Sea Level Pressure 29.97 in    
Wind  
Wind Speed 12 mph (ESE)    
Max Wind Speed 23 mph    
Max Gust Speed 29 mph    
Visibility 9 miles    
Events Rain    
T = Trace of Precipitation, MM = Missing Value Source: NWS Daily Summary

Daily Weather History Graph

Daily Weather History Graph

Search for Another Location

Airport or City:

Astronomy

Mar. 08, 2014 Rise Set
Actual Time 6:35 AM PST 6:06 PM PST
Civil Twilight 6:05 AM PST 6:35 PM PST
Nautical Twilight 5:31 AM PST 7:10 PM PST
Astronomical Twilight 4:56 AM PST 7:44 PM PST
Moon 11:02 AM PST (3/8) 1:27 AM PST (3/8)
Length of Visible Light 12h 30m
Length of Day
11h 31m
First Quarter, 53% of the Moon is Illuminated
Mar 8
First Quarter
Mar 16
Full
Mar 23
Last Quarter
Mar 30
New
Apr 7
First Quarter

Hourly Weather History & Observations

Time (PST) Temp. Windchill Dew Point Humidity Pressure Visibility Wind Dir Wind Speed Gust Speed Precip Events Conditions
12:53 AM 48.0 °F - 41.0 °F 77% 30.12 in 10.0 mi ESE 9.2 mph - N/A   Clear
1:53 AM 48.0 °F - 41.0 °F 77% 30.12 in 10.0 mi East 12.7 mph - N/A   Clear
2:53 AM 45.0 °F 39.7 °F 39.9 °F 82% 30.09 in 10.0 mi East 10.4 mph - N/A   Clear
3:53 AM 46.9 °F - 39.0 °F 74% 30.06 in 10.0 mi East 15.0 mph - N/A   Clear
4:53 AM 46.9 °F - 39.9 °F 77% 30.05 in 10.0 mi ESE 16.1 mph - N/A   Clear
5:53 AM 48.0 °F - 39.0 °F 71% 30.06 in 10.0 mi ESE 11.5 mph - N/A   Clear
6:53 AM 48.0 °F - 39.9 °F 74% 30.06 in 10.0 mi ESE 10.4 mph - N/A   Clear
7:53 AM 48.0 °F - 41.0 °F 77% 30.06 in 10.0 mi ESE 3.5 mph - N/A   Scattered Clouds
8:53 AM 51.1 °F - 42.1 °F 71% 30.04 in 10.0 mi East 6.9 mph - N/A   Mostly Cloudy
9:53 AM 51.1 °F - 39.9 °F 66% 30.03 in 10.0 mi East 11.5 mph - N/A   Overcast
10:53 AM 51.1 °F - 41.0 °F 68% 30.03 in 10.0 mi East 15.0 mph 21.9 mph 0.00 in Rain Light Rain
11:53 AM 51.1 °F - 41.0 °F 68% 30.00 in 10.0 mi East 15.0 mph - 0.00 in   Overcast
12:53 PM 51.1 °F - 43.0 °F 74% 29.96 in 10.0 mi East 21.9 mph 28.8 mph 0.00 in Rain Light Rain
1:53 PM 50.0 °F - 44.1 °F 80% 29.95 in 8.0 mi East 15.0 mph - 0.02 in Rain Light Rain
2:53 PM 50.0 °F - 45.0 °F 83% 29.94 in 10.0 mi East 18.4 mph 24.2 mph 0.04 in Rain Light Rain
3:53 PM 51.1 °F - 46.0 °F 83% 29.92 in 10.0 mi East 17.3 mph 23.0 mph 0.02 in Rain Light Rain
4:53 PM 51.1 °F - 46.9 °F 86% 29.90 in 9.0 mi East 15.0 mph - 0.01 in Rain Light Rain
5:53 PM 51.1 °F - 46.9 °F 86% 29.88 in 10.0 mi East 12.7 mph 19.6 mph 0.03 in Rain Light Rain
6:53 PM 51.1 °F - 48.0 °F 89% 29.86 in 10.0 mi East 12.7 mph - 0.00 in Rain Light Rain
7:53 PM 51.1 °F - 48.0 °F 89% 29.85 in 10.0 mi ENE 8.1 mph - 0.02 in Rain Light Rain
8:53 PM 50.0 °F - 48.0 °F 93% 29.86 in 10.0 mi East 4.6 mph - 0.02 in Rain Light Rain
9:48 PM 50.0 °F - 48.2 °F 94% 29.88 in 6.0 mi Calm Calm - 0.04 in Rain Light Rain
9:53 PM 50.0 °F - 48.0 °F 93% 29.89 in 5.0 mi East 3.5 mph - 0.05 in Rain Light Rain
10:23 PM 50.0 °F - 48.0 °F 93% 29.90 in 4.0 mi Calm Calm - 0.04 in Rain Light Rain
10:53 PM 57.0 °F - 53.1 °F 87% 29.91 in 10.0 mi SSW 13.8 mph 20.7 mph 0.07 in Rain Light Rain
11:15 PM 57.0 °F - 53.1 °F 87% 29.91 in 10.0 mi SW 12.7 mph 21.9 mph 0.02 in Rain Light Rain
11:30 PM 57.0 °F - 53.1 °F 87% 29.92 in 7.0 mi SW 10.4 mph 19.6 mph 0.04 in Rain Light Rain
11:49 PM 57.2 °F - 53.6 °F 88% 29.93 in 8.0 mi SW 5.8 mph - 0.06 in Rain Light Rain
11:53 PM 57.0 °F - 53.1 °F 87% 29.93 in 9.0 mi SW 5.8 mph - 0.06 in Rain Light Rain